Location: Copper Breaks State Park
(34.1132°N, 99.7492°W)
Time: 08:50:32
(UTC-05:00)

Amateur Radio Satellites - All Passes

Search period start: 19 September 2014 08:20
Search period end: 20 September 2014 08:20
Location: Copper Breaks State Park, 34.1132°N, 99.7492°W

Satellite Date Start Highest point End Downlink Frequencies (MHz)
Time Altitude Azimuth
AO-7 19 Sep 08:22:27 08:26:21 14° 307° (NW) 08:30:15 29.400 - 29.500 MHz
SO-50 19 Sep 08:26:00 08:30:47 60° 59° (ENE) 08:35:35 436.795 FM
STRAND 1 19 Sep 08:48:28 08:52:14 21° 265° (W) 08:56:01 ?
JAS-2 19 Sep 09:13:39 09:17:00 15° 295° (WNW) 09:20:33 435.800 - 435.900 CW/SSB, 435.910 FM
MaSat-1 19 Sep 09:21:24 09:26:23 80° 293° (WNW) 09:31:24 437.345 MHz
ISS 19 Sep 09:31:13 09:32:58 14° 29° (NNE) 09:34:44 145.800 FM
RS-15 19 Sep 09:33:51 09:36:42 11° 348° (NNW) 09:39:33 29.354 - 29.394 USB, Beacon 29.352 USB
HO-68 19 Sep 09:42:53 09:48:46 27° 96° (E) 09:54:36 435.675 MHz FM
SO-67 19 Sep 09:49:10 09:50:24 12° 291° (WNW) 09:51:38 435.3500 MHz FM
UOSAT-12 19 Sep 10:06:37 10:11:12 50° 58° (ENE) 10:15:42 437.025 FM, 437.400 FM
SO-50 19 Sep 10:08:39 10:10:50 13° 253° (WSW) 10:13:01 436.795 FM
FUNcube-1 19 Sep 10:54:43 10:57:16 15° 93° (E) 10:59:48 145.950 - 145.970 MHz USB
Oscar 11 19 Sep 11:04:27 11:08:40 49° 100° (E) 11:12:50 145.825 FM, Beacon 2401.500 USB
ISS 19 Sep 11:06:42 11:10:01 71° 225° (SW) 11:13:18 145.800 FM
UKube-1 19 Sep 11:20:40 11:25:02 76° 284° (WNW) 11:29:22 145.840 MHz, 145.915 MHz
HO-68 19 Sep 11:29:46 11:36:36 49° 291° (WNW) 11:43:26 435.675 MHz FM
UOSAT-12 19 Sep 11:48:21 11:50:52 15° 252° (WSW) 11:53:22 437.025 FM, 437.400 FM
RS-15 19 Sep 11:50:07 11:56:19 16° 27° (NNE) 12:02:36 29.354 - 29.394 USB, Beacon 29.352 USB
Sapphire 19 Sep 12:18:24 12:23:02 30° 108° (ESE) 12:27:42 437.095 MHz 1200 baud AX-25 AFSK
FUNcube-1 19 Sep 12:29:27 12:33:49 43° 287° (WNW) 12:38:08 145.950 - 145.970 MHz USB
Oscar 10/S400 19 Sep 12:39:02 08:20:02 17° 227° (SW) 13:13:35 145.825 - 145.975 CW/USB, Beacon 145.810 USB
Oscar 11 19 Sep 12:42:37 12:44:22 12° 294° (WNW) 12:46:07 145.825 FM, Beacon 2401.500 USB
PCSat 19 Sep 12:44:40 12:49:57 60° 112° (ESE) 12:55:17 145.825 MHz
Oscar 16 19 Sep 12:59:22 12:59:52 10° 62° (ENE) 13:00:22 437.025 USB, Beacon 2401.1428
JAS-1B 19 Sep 13:10:57 13:14:43 14° 61° (ENE) 13:18:15 435.800 - 435.900 CW/SSB
ITAMSAT 1 19 Sep 13:41:34 13:42:43 11° 62° (ENE) 13:43:52 435.822 SSB
Uribyol 2 19 Sep 13:44:40 13:46:53 13° 63° (ENE) 13:49:07 436.500 FM
Oscar 19 19 Sep 13:54:58 13:59:45 38° 71° (ENE) 14:04:32 437.125 CW, 437.150 USB
RS-15 19 Sep 14:01:05 14:11:58 55° 55° (NE) 14:23:15 29.354 - 29.394 USB, Beacon 29.352 USB
Sapphire 19 Sep 14:01:36 14:06:21 31° 303° (WNW) 14:11:08 437.095 MHz 1200 baud AX-25 AFSK
AO-27 19 Sep 14:13:12 14:17:17 24° 68° (ENE) 14:21:23 436.795 MHz FM
PCSat 19 Sep 14:30:12 14:33:46 18° 309° (NW) 14:37:20 145.825 MHz
Oscar 16 19 Sep 14:33:15 14:38:26 83° 257° (WSW) 14:43:40 437.025 USB, Beacon 2401.1428
AO-Echo 19 Sep 14:48:27 14:53:09 61° 75° (ENE) 14:57:47 ?
JAS-1B 19 Sep 14:55:34 15:04:31 81° 75° (ENE) 15:12:02 435.800 - 435.900 CW/SSB
Gurwin Techsat 1B 19 Sep 15:03:57 15:08:42 35° 70° (ENE) 15:13:28 435.225 FM
ITAMSAT 1 19 Sep 15:16:19 15:21:29 79° 257° (WSW) 15:26:40 435.822 SSB
Uribyol 2 19 Sep 15:20:37 15:25:44 67° 258° (WSW) 15:30:54 436.500 FM
AO-7 19 Sep 15:31:51 15:37:31 21° 57° (ENE) 15:43:10 29.400 - 29.500 MHz
Oscar 19 19 Sep 15:35:18 15:39:09 21° 265° (W) 15:43:01 437.125 CW, 437.150 USB
TMSAT-1 19 Sep 15:40:37 15:45:46 58° 74° (ENE) 15:50:58 436.925 FM
AO-27 19 Sep 15:51:57 15:56:35 33° 262° (W) 16:01:15 436.795 MHz FM
Uosat F 19 Sep 16:00:49 16:03:18 14° 64° (ENE) 16:05:47 435.120 FM
RS-15 19 Sep 16:13:56 16:23:54 39° 253° (WSW) 16:34:18 29.354 - 29.394 USB, Beacon 29.352 USB
AO-Echo 19 Sep 16:31:33 16:32:15 10° 268° (W) 16:32:56 ?
Gurwin Techsat 1B 19 Sep 16:44:28 16:48:40 24° 264° (W) 16:52:54 435.225 FM
JAS-1B 19 Sep 16:49:52 16:55:16 18° 265° (W) 17:00:15 435.800 - 435.900 CW/SSB
Saudisat 1A 19 Sep 17:05:08 17:08:36 23° 111° (ESE) 17:12:04 436.775 MHz
OPAL 19 Sep 17:07:11 17:07:22 10° 93° (E) 17:07:32 ?
AO-7 19 Sep 17:21:03 17:29:22 79° 254° (WSW) 17:37:42 29.400 - 29.500 MHz
TMSAT-1 19 Sep 17:23:22 17:26:00 14° 268° (W) 17:28:40 436.925 FM
Uosat F 19 Sep 17:36:39 17:41:33 58° 259° (W) 17:46:29 435.120 FM
JAS-2 19 Sep 17:37:55 17:41:14 17° 66° (ENE) 17:44:31 435.800 - 435.900 CW/SSB, 435.910 FM
OPAL 19 Sep 18:41:33 18:46:42 74° 287° (WNW) 18:51:45 ?
Saudisat 1A 19 Sep 18:44:10 18:48:00 29° 306° (NW) 18:51:52 436.775 MHz
Hamsat 19 Sep 18:46:10 18:50:31 77° 77° (ENE) 18:54:53 145.90 MHz
AO-40 19 Sep 18:55:21 01:30:08 47° 184° (S) 07:20:32 Beacon 2401.320
MaSat-1 19 Sep 19:18:52 19:22:30 77° 248° (WSW) 19:25:34 437.345 MHz
AO-7 19 Sep 19:20:38 19:23:08 12° 269° (W) 19:25:39 29.400 - 29.500 MHz
JAS-2 19 Sep 19:20:54 19:26:01 45° 260° (W) 19:30:58 435.800 - 435.900 CW/SSB, 435.910 FM
STRAND 1 19 Sep 19:23:42 19:27:00 17° 94° (E) 19:30:17 ?
KITSAT 1 19 Sep 19:30:44 19:38:16 45° 109° (ESE) 19:45:49 435.175 FM
HO-68 19 Sep 20:10:29 20:13:50 14° 57° (ENE) 20:17:10 435.675 MHz FM
SO-67 19 Sep 20:16:12 20:19:36 62° 260° (W) 20:23:02 435.3500 MHz FM
STRAND 1 19 Sep 21:01:28 21:06:21 46° 288° (WNW) 21:11:14 ?
Sapphire 19 Sep 21:11:24 21:13:48 13° 48° (NE) 21:16:11 437.095 MHz 1200 baud AX-25 AFSK
KITSAT 1 19 Sep 21:26:21 21:33:41 37° 306° (NW) 21:41:05 435.175 FM
PCSat 19 Sep 21:37:02 21:41:17 23° 54° (NE) 21:45:30 145.825 MHz
HO-68 19 Sep 21:53:20 22:00:28 86° 74° (ENE) 22:07:39 435.675 MHz FM
Oscar 11 19 Sep 21:56:17 21:59:49 25° 70° (ENE) 22:03:21 145.825 FM, Beacon 2401.500 USB
UKube-1 19 Sep 22:12:21 22:16:35 56° 74° (ENE) 22:20:50 145.840 MHz, 145.915 MHz
SO-50 19 Sep 22:37:36 22:41:49 45° 114° (ESE) 22:46:09 436.795 FM
Sapphire 19 Sep 22:52:27 22:57:54 85° 245° (WSW) 23:03:19 437.095 MHz 1200 baud AX-25 AFSK
PCSat 19 Sep 23:19:44 23:24:51 43° 250° (WSW) 23:29:55 145.825 MHz
FUNcube-1 19 Sep 23:21:36 23:25:58 86° 258° (WSW) 23:30:28 145.950 - 145.970 MHz USB
Oscar 11 19 Sep 23:32:23 23:35:53 23° 264° (W) 23:39:24 145.825 FM, Beacon 2401.500 USB
HO-68 19 Sep 23:45:43 23:48:51 13° 268° (W) 23:52:00 435.675 MHz FM
UOSAT-12 20 Sep 00:14:21 00:18:31 35° 113° (ESE) 00:22:46 437.025 FM, 437.400 FM
SO-50 20 Sep 00:19:36 00:22:36 17° 311° (NW) 00:25:40 436.795 FM
PANSAT 20 Sep 01:13:53 01:15:55 14° 159° (SSE) 01:17:57 not established
UOSAT-12 20 Sep 01:55:06 01:58:44 22° 309° (NW) 02:02:25 437.025 FM, 437.400 FM
ISS 20 Sep 02:10:23 02:13:01 22° 129° (SE) 02:15:40 145.800 FM
Oscar 19 20 Sep 02:11:20 02:14:50 18° 94° (E) 02:18:19 437.125 CW, 437.150 USB
AO-27 20 Sep 02:32:01 02:33:26 11° 92° (E) 02:34:50 436.795 MHz FM
JAS-1B 20 Sep 02:46:58 02:51:07 21° 95° (E) 02:55:19 435.800 - 435.900 CW/SSB
Oscar 16 20 Sep 02:49:00 02:54:00 47° 100° (E) 02:58:56 437.025 USB, Beacon 2401.1428
PANSAT 20 Sep 02:52:13 02:55:35 29° 171° (S) 02:58:57 not established
AO-Echo 20 Sep 02:59:29 03:03:36 27° 97° (E) 03:07:49 ?
Saudisat 1A 20 Sep 03:13:37 03:18:03 75° 60° (ENE) 03:22:26 436.775 MHz
Gurwin Techsat 1B 20 Sep 03:24:41 03:28:22 19° 94° (E) 03:32:02 435.225 FM
KITSAT 1 20 Sep 03:30:05 03:33:27 13° 37° (NE) 03:36:47 435.175 FM
ITAMSAT 1 20 Sep 03:33:06 03:38:11 51° 100° (E) 03:43:14 435.822 SSB
Uribyol 2 20 Sep 03:37:09 03:42:19 61° 101° (ESE) 03:47:28 436.500 FM
ISS 20 Sep 03:46:41 03:49:37 28° 324° (NW) 03:52:33 145.800 FM
Oscar 19 20 Sep 03:49:27 03:54:19 43° 288° (WNW) 03:59:08 437.125 CW, 437.150 USB
TMSAT-1 20 Sep 04:00:38 04:05:20 31° 97° (E) 04:10:00 436.925 FM
AO-27 20 Sep 04:08:09 04:13:21 70° 285° (WNW) 04:18:31 436.795 MHz FM
OPAL 20 Sep 04:16:49 04:19:28 14° 62° (ENE) 04:22:08 ?
RS-15 20 Sep 04:19:57 04:30:28 50° 110° (ESE) 04:40:44 29.354 - 29.394 USB, Beacon 29.352 USB
Oscar 16 20 Sep 04:29:34 04:32:55 18° 294° (WNW) 04:36:16 437.025 USB, Beacon 2401.1428
PANSAT 20 Sep 04:31:55 04:35:24 34° 184° (S) 04:38:54 not established
JAS-1B 20 Sep 04:36:43 04:41:58 39° 290° (WNW) 04:47:17 435.800 - 435.900 CW/SSB
AO-Echo 20 Sep 04:38:11 04:42:16 28° 290° (WNW) 04:46:27 ?
Gurwin Techsat 1B 20 Sep 05:03:27 05:08:28 44° 288° (WNW) 05:13:28 435.225 FM
ITAMSAT 1 20 Sep 05:13:58 05:17:12 17° 295° (WNW) 05:20:27 435.822 SSB
Uribyol 2 20 Sep 05:18:30 05:21:14 14° 296° (WNW) 05:23:57 436.500 FM
KITSAT 1 20 Sep 05:22:44 05:30:41 59° 59° (ENE) 05:38:35 435.175 FM
AO-7 20 Sep 05:27:07 05:34:59 46° 101° (E) 05:42:48 29.400 - 29.500 MHz
TMSAT-1 20 Sep 05:40:42 05:45:05 27° 291° (WNW) 05:49:27 436.925 FM
Uosat F 20 Sep 05:48:02 05:53:00 59° 101° (ESE) 05:57:57 435.120 FM
OPAL 20 Sep 05:52:39 05:57:45 64° 257° (WSW) 06:02:56 ?
PANSAT 20 Sep 06:12:18 06:15:09 20° 196° (SSW) 06:18:01 not established
JAS-2 20 Sep 06:32:08 06:37:24 27° 97° (E) 06:43:10 435.800 - 435.900 CW/SSB, 435.910 FM
RS-15 20 Sep 06:32:32 06:42:50 43° 309° (NW) 06:53:04 29.354 - 29.394 USB, Beacon 29.352 USB
STRAND 1 20 Sep 06:36:30 06:39:47 18° 66° (ENE) 06:43:05 ?
Hamsat 20 Sep 06:36:53 06:39:45 18° 94° (E) 06:42:34 145.90 MHz
SO-50 20 Sep 07:13:21 07:16:40 18° 50° (NE) 07:20:00 436.795 FM
KITSAT 1 20 Sep 07:19:10 07:25:30 26° 255° (WSW) 07:31:49 435.175 FM
AO-7 20 Sep 07:20:14 07:27:30 36° 297° (WNW) 07:34:46 29.400 - 29.500 MHz
Uosat F 20 Sep 07:28:45 07:31:15 14° 296° (WNW) 07:33:44 435.120 FM
SO-67 20 Sep 07:45:32 07:46:33 11° 93° (E) 07:47:33 435.3500 MHz FM
Hamsat 20 Sep 08:12:01 08:15:43 30° 288° (WNW) 08:19:22 145.90 MHz
